Q11 Station data: (204) Schiaparelli Observatory (N45.867933 E8.770800) Italy. Observer L. Buzzi. 0.60-m f/4.64 Newtonian + CCD. (595) Farra d'Isonzo (N45.915734 E13.525780) Italy. Observers L. Bittesini, F. Fabris, E. Pettarin, F. Piani. Measurer E. Pettarin. 0.30-m f/4.5 reflector + CCD. (703) Catalina Sky Survey (N32.417006 W110.732640) US/Arizona. Observers T. A. Pruyne, B. M. Africano, E. J. Christensen, G. A. Farneth, D. C. Fuls, A. R. Gibbs, A. D. Grauer, H. Gröller, J. A. Johnson, R. A. Kowalski, S. M. Larson, G. J. Leonard, D. Rankin, R. L. Seaman, F. C. Shelly. 0.68 m Schmidt + 10K CCD. (711) McDonald Observatory, Fort Davis (N30.671481 W104.021500) US/Texas. 0.76-m f/3.0 reflector. (807) Cerro Tololo Observatory, La Serena (S30.169136 W70.805900) Chile. (G40) Slooh.com Canary Islands Observatory (N28.299720 W16.508260) Canary Islands (Spain). Observers G. Gašparović, Y. Chen. 0.43-m f/6.8 Corrected Dall-Kirkham + CCD. (H06) RAS Observatory, Mayhill (N32.903325 W105.528700) US/New Mexico. Observers E. Guido, G. Sostero, V. Gonano, L. Donato. (I47) Pierre Auger Observatory, Malargüe (S35.495442 W69.449700) Argentina. (I52) Steward Observatory, Mt. Lemmon Station (N32.442547 W110.788920) US/Arizona. Observers T. A. Pruyne, B. M. Africano, E. J. Christensen, G. A. Farneth, D. C. Fuls, A. R. Gibbs, A. D. Grauer, H. Gröller, J. A. Johnson, R. A. Kowalski, S. M. Larson, G. J. Leonard, D. Rankin, R. L. Seaman, F. C. Shelly. 1.0-m reflector + CCD. (K74) Muensterschwarzach Observatory, Schwarzach (N49.805279 E10.236400) Germany. (K91) Sutherland-LCO A (S32.380542 E20.810190) South Africa. Observers T. Lister, S. Greenstreet, E. Gomez. Measurer T. Lister. 1.0-m f/8 Ritchey-Chrétien + CCD. (L01) Višnjan Observatory, Tičan (N45.290900 E13.749300) Croatia. Observers K. Korlević, E. Pettarin. Measurer E. Pettarin. 1.0-m f/2.9 reflector + CCD. (L06) Sormano 2 Observatory, Bellagio Via Lattea (N45.970103 E9.254030) Italy. (N51) GROWTH India Telescope, IAO, Hanle (N32.779244 E78.964610) India. (Q11) Shinshiro (N34.984299 E137.520690) Japan. (T05) ATLAS-HKO, Haleakala (N20.707573 W156.257010) US/Hawaii. Observers L. Denneau, A. Heinze, H. Weiland, J. Tonry, H. Flewelling, A. Fitzsimmons, D. Young, B. Stalder. Measurers L. Denneau, A. Heinze, J. Tonry. 0.5-m f/2.0 Schmidt + CCD. (T08) ATLAS-MLO, Mauna Loa (N19.536152 W155.576050) US/Hawaii. Observers L. Denneau, A. Heinze, H. Weiland, J. Tonry, H. Flewelling, A. Fitzsimmons, D. Young, B. Stalder. Measurers L. Denneau, A. Heinze, J. Tonry. 0.5-m f/2.0 Schmidt + CCD. (W85) Cerro Tololo-LCO A (S30.167407 W70.804810) Chile. Observers T. Lister, S. Greenstreet, E. Gomez. Measurer T. Lister. 1.0-m f/8 Ritchey-Chrétien + CCD. (W88) Slooh.com Chile Observatory, La Dehesa (S33.269128 W70.534300) Chile. 0.35-m f/11 Schmidt-Cassegrain + CCD. Orbital elements: A10u1Pq Perihelion 2020 Dec 3.320014 +/- 0.110345 TT = 7:40:49 (JD 2459186.820014) Epoch 2021 Jan 14.0 TT = JDT 2459228.5 AutoNEOCP M 0.03077863 +/- 0.0049796 (J2000 ecliptic) n 0.00073845 +/- 0.00014064 Peri. 341.95935 +/- 0.0561252 a 121.223872 +/- 15.2919 Node 191.40953 +/- 0.0109104 e 0.9835206 +/- 0.00208601 Incl. 83.09432 +/- 0.0056486 P1334.70 H 14.2 G 0.15 U 6.8 q 1.99769043 +/- 0.000989007 Q 240.450054 +/- 68.0468 From 90 observations 2020 Dec. 28-2021 Jan. 14; mean residual 0".49
Residuals in arcseconds: 201228 T08 .52- .14+ 201231 W88 .08+ .67+ 210112 711 .12+ .22- 201228 T08 .44- .63- 201231 W88 .08+ .62- 210112 711 .09+ .23- 201228 T08 .77- 1.3+ 201231 W88 .49- .57+ 210112 711 .20+ .17- 201228 T08 .17- .70+ 210102 I52 .15+ .18+ 210112 T05 .07- .06- 201229 I47 .21+ 1.0- 210102 I52 .48- .11- 210112 T05 .10+ .56+ 201229 I47 .63+ .73- 210102 I52 .09- .19- 210112 T05 .21- .68+ 201229 I47 .18+ .12+ 210104 703 .14- .61- 210112 T05 .02+ 1.2+ 201229 807 .08- .01- 210104 703 .63- .37- 210113 N51 .08+ .64- 201229 807 .00 .02- 210104 703 .68- .57+ 210113 N51 .00 .43- 201229 807 .06- .02- 210104 703 1.6- .10+ 210113 N51 .01+ .59- 201229 807 .11- .03- 210106 T08 1.9+ .52- 210113 N51 .04+ .54- 201229 H06 .24- .16- 210106 T08 .22+ .03+ 210113 N51 .28+ .26- 201229 H06 .66- .43- 210106 T08 .85+ .64+ 210113 K74 .34- .18+ 201230 K91 .25+ .27+ 210106 T08 .16- .03+ 210113 K74 .18- .22+ 201230 K91 .15- .07- 210109 595 1.1- .03- 210113 K74 .16- .33- 201230 K91 .01+ .01- 210109 595 .19+ .11+ 210113 K74 .13- .36- 201230 K91 .59+ .03+ 210109 L01 .18- .20+ 210113 Q11 .04- .02+ 201230 G40 .72+ .46+ 210109 L01 .16+ .06+ 210113 Q11 .15+ .01+ 201230 G40 .98+ .76- 210109 L01 .08- .17- 210113 Q11 .08+ .14+ 201230 W85 .44+ .18+ 210109 711 .60+ .13+ 210114 T08 .31- .33+ 201230 W85 .02- .14- 210109 711 .40+ .02+ 210114 T08 .02+ .48+ 201230 W85 .51+ .64+ 210109 711 .47+ .38+ 210114 T08 .47+ .15- 201230 W85 .18+ .01+ 210109 711 .15+ .65+ 210114 T08 .15- .32- 201230 W85 .69+ .46+ 210109 I52 .43- .42- 210114 T08 2.1- .89- 201231 204 .16- .36+ 210109 I52 .24+ .36+ 210114 T08 .40- .37+ 201231 L06 .29- .16- 210109 I52 .08+ .47+ 210114 T08 .18+ .22- 201231 204 .16+ .00 210110 T08 .05- .22- 210114 T08 .46+ .30+ 201231 L06 .25- .59- 210110 T08 1.1- 1.5- 210114 Q11 .28+ .24+ 201231 L06 .27- .61- 210110 T08 .50+ .21+ 210114 Q11 .40+ .32+ 201231 W88 .05+ .98+ 210110 T08 .07+ .32- 210114 Q11 .57+ .23+ Ephemerides (geocentric): Date (UTC) HH RA Dec delta r elong mag " sig PA ---- -- -- -- ------------- ----------- ------ ------ ----- --- ---- --- 2021 01 15 04 14 30 46.156 -12 10 22.35 2.0729 2.0632 75.7 18.6 .133 136 2021 01 15 05 14 30 49.059 -12 09 21.34 2.0724 2.0633 75.7 18.6 .135 136 2021 01 15 06 14 30 51.960 -12 08 20.27 2.0718 2.0634 75.8 18.6 .138 136 2021 01 15 07 14 30 54.860 -12 07 19.15 2.0713 2.0635 75.8 18.6 .140 136 2021 01 15 08 14 30 57.757 -12 06 17.99 2.0707 2.0637 75.8 18.6 .143 136 2021 01 15 09 14 31 00.653 -12 05 16.77 2.0702 2.0638 75.9 18.6 .145 136 2021 01 15 10 14 31 03.547 -12 04 15.51 2.0696 2.0639 75.9 18.6 .148 136 2021 01 15 11 14 31 06.439 -12 03 14.19 2.0691 2.0640 75.9 18.6 .150 136 2021 01 15 12 14 31 09.330 -12 02 12.83 2.0685 2.0642 76.0 18.6 .153 136 2021 01 15 13 14 31 12.218 -12 01 11.41 2.0680 2.0643 76.0 18.6 .155 136 2021 01 15 14 14 31 15.105 -12 00 09.95 2.0674 2.0644 76.1 18.6 .158 136 2021 01 15 15 14 31 17.990 -11 59 08.44 2.0669 2.0645 76.1 18.6 .161 136 2021 01 15 16 14 31 20.874 -11 58 06.87 2.0663 2.0647 76.1 18.6 .163 136 2021 01 15 17 14 31 23.755 -11 57 05.26 2.0658 2.0648 76.2 18.6 .166 137 2021 01 15 18 14 31 26.635 -11 56 03.60 2.0652 2.0649 76.2 18.6 .169 137 2021 01 15 19 14 31 29.513 -11 55 01.89 2.0647 2.0650 76.2 18.6 .171 137 2021 01 15 20 14 31 32.389 -11 54 00.12 2.0641 2.0652 76.3 18.6 .174 137 2021 01 15 21 14 31 35.263 -11 52 58.31 2.0636 2.0653 76.3 18.6 .177 137 2021 01 15 22 14 31 38.135 -11 51 56.45 2.0630 2.0654 76.4 18.6 .179 137 2021 01 15 23 14 31 41.006 -11 50 54.54 2.0625 2.0655 76.4 18.6 .182 137 2021 01 16 00 14 31 43.875 -11 49 52.57 2.0619 2.0657 76.4 18.6 .185 137 2021 01 16 01 14 31 46.742 -11 48 50.56 2.0614 2.0658 76.5 18.6 .187 137 2021 01 16 02 14 31 49.607 -11 47 48.50 2.0608 2.0659 76.5 18.6 .190 137 2021 01 16 03 14 31 52.471 -11 46 46.38 2.0602 2.0660 76.5 18.6 .193 137 2021 01 16 04 14 31 55.332 -11 45 44.22 2.0597 2.0662 76.6 18.6 .196 137 2021 01 16 05 14 31 58.192 -11 44 42.01 2.0591 2.0663 76.6 18.6 .199 137 2021 01 16 06 14 32 01.050 -11 43 39.74 2.0586 2.0664 76.6 18.6 .201 137 2021 01 16 07 14 32 03.906 -11 42 37.43 2.0580 2.0666 76.7 18.6 .204 137 2021 01 16 08 14 32 06.761 -11 41 35.07 2.0575 2.0667 76.7 18.6 .207 137 2021 01 16 09 14 32 09.613 -11 40 32.65 2.0569 2.0668 76.8 18.6 .210 137 2021 01 16 10 14 32 12.464 -11 39 30.19 2.0564 2.0669 76.8 18.6 .213 137 2021 01 16 11 14 32 15.313 -11 38 27.67 2.0558 2.0671 76.8 18.6 .216 137 2021 01 16 12 14 32 18.160 -11 37 25.11 2.0553 2.0672 76.9 18.6 .219 137 2021 01 16 13 14 32 21.005 -11 36 22.49 2.0547 2.0673 76.9 18.6 .221 137 2021 01 16 14 14 32 23.848 -11 35 19.82 2.0542 2.0675 76.9 18.6 .224 137 2021 01 16 15 14 32 26.690 -11 34 17.11 2.0536 2.0676 77.0 18.6 .227 137 2021 01 16 16 14 32 29.530 -11 33 14.34 2.0531 2.0677 77.0 18.6 .230 137 2021 01 16 17 14 32 32.368 -11 32 11.52 2.0525 2.0678 77.1 18.6 .233 137 2021 01 16 18 14 32 35.204 -11 31 08.65 2.0520 2.0680 77.1 18.6 .236 137 2021 01 16 19 14 32 38.038 -11 30 05.73 2.0514 2.0681 77.1 18.6 .239 137 2021 01 16 20 14 32 40.871 -11 29 02.76 2.0509 2.0682 77.2 18.6 .242 137 2021 01 16 21 14 32 43.701 -11 27 59.74 2.0503 2.0684 77.2 18.6 .245 137 2021 01 16 22 14 32 46.530 -11 26 56.66 2.0498 2.0685 77.2 18.6 .248 137 2021 01 16 23 14 32 49.357 -11 25 53.54 2.0492 2.0686 77.3 18.6 .252 137 2021 01 17 00 14 32 52.182 -11 24 50.37 2.0487 2.0687 77.3 18.6 .255 137 2021 01 17 01 14 32 55.005 -11 23 47.14 2.0481 2.0689 77.4 18.6 .258 137 2021 01 17 02 14 32 57.827 -11 22 43.87 2.0476 2.0690 77.4 18.6 .261 137 2021 01 17 03 14 33 00.646 -11 21 40.54 2.0470 2.0691 77.4 18.6 .264 137